Tracking 32427 objects as of 10-Dec-2025
HD Live streaming from Space Station
objects crossing your sky now

OBJECT M

Track OBJECT M now!
10-day predictions


NORAD ID: 64887
Int'l Code: 2025-155M
Perigee: 480.7 km
Apogee: 495.0 km
Inclination: 97.4 °
Period: 94.2 minutes
Semi major axis: 6858 km
RCS: Unknown
Launch date: July 25, 2025
Source: (TBD)
Launch site: VOSTOCHNY COSMODROME (VOSTO)
Your satellite tracking list
Your tracking list is empty




NASA's NSSDC Master Catalog

Two Line Element Set (TLE):
1 64887U 25155M   25344.18918617  .00028886  00000-0  10446-2 0  9999
2 64887  97.4317 308.1888 0010427 108.1889 252.0487 15.28345532 51924
Source of the keplerian elements: AFSPC